Location: Newark
(45.5167°N, 11.1667°E)
Time: 23:08:01
(UTC+00:00)

Transit 2A - Visible Passes

Search period start: 06 December 2019 00:00
Search period end: 16 December 2019 00:00
Orbit: 602 x 957 km, 66.7° (Epoch: 06 December)

Date Brightness Start Highest point End Pass type
(mag) Time Alt. Az. Time Alt. Az. Time Alt. Az.
06 Dec 9.5 05:44:54 10° ESE 05:46:08 11° ESE 05:47:23 10° E visible
06 Dec 6.1 16:07:49 10° NW 16:12:12 67° WSW 16:16:49 10° SSE visible
07 Dec 9.2 17:18:59 10° W 17:20:38 12° WSW 17:22:19 10° SW visible
08 Dec 8.8 16:43:40 10° WNW 16:46:42 18° WSW 16:49:53 10° SSW visible
09 Dec 8.2 05:42:27 10° S 05:46:30 27° ESE 05:50:18 10° NE visible
09 Dec 8.2 16:08:59 10° NW 16:12:44 27° WSW 16:16:41 10° S visible
10 Dec 8.8 05:09:17 10° SSE 05:12:31 18° ESE 05:15:37 10° ENE visible
11 Dec 9.2 04:36:53 10° SE 04:38:35 12° ESE 04:40:17 10° E visible
12 Dec 6.2 05:42:17 10° SSW 05:47:03 65° ESE 05:51:28 10° NE visible
12 Dec 9.4 16:11:53 10° W 16:13:04 11° WSW 16:14:16 10° WSW visible
13 Dec 7.0 05:08:27 10° S 05:12:58 43° ESE 05:17:13 10° NE visible
14 Dec 7.7 04:34:51 10° S 04:38:57 29° ESE 04:42:49 10° NE visible
15 Dec 8.3 04:01:36 10° SSE 04:04:58 19° ESE 04:08:12 10° ENE visible
15 Dec 5.7 05:43:10 10° SW 05:47:46 53° NW 05:52:07 10° NNE visible
